Date_and_time,latitude,longitude,wind_speed,RelWindDirFrom,WindDirFrom,air_pressure,air_temperature,relative_humidity,Temp,platform_speed_wrt_ground,air_pressure_at_mean_sea_level,platform_orientation
2019-11-20 00:00,50.6304333333333,-96.9807833333333,3.9,4.6,318,984.29,0.3,90,0.94,0.0,1012.00,291.5
2019-11-20 00:10,50.6304333333333,-96.9807816666667,3.2,4.4,308,984.48,0.3,91,0.96,0.0,1012.20,291.5
2019-11-20 00:20,50.6304333333333,-96.9807816666667,2.9,4.4,306,984.64,0.3,91,0.97,0.0,1012.36,291.5
2019-11-20 00:30,50.6304333333333,-96.98078,3.5,4.7,308,984.83,0.3,90,0.97,0.0,1012.57,291.5
2019-11-20 00:40,50.6304333333333,-96.9807783333333,2.9,4.3,295,984.96,0.3,90,0.97,0.0,1012.70,291.5
2019-11-20 00:50,50.6304333333333,-96.9807766666667,3.2,4.6,306,985.11,0.2,90,0.97,0.0,1012.86,291.5
2019-11-20 01:00,50.6304333333333,-96.9807766666667,3.2,4.2,306,985.34,0.2,89,0.97,0.0,1013.09,60.8
2019-11-20 01:10,50.6304433333333,-96.9807716666667,2.9,4.5,307,985.41,0.2,89,0.96,0.0,1013.17,60.8
2019-11-20 01:20,50.6304433333333,-96.9807683333333,2.9,4.0,314,985.46,0.2,89,0.97,0.0,1013.22,60.8
2019-11-20 01:30,50.6304433333333,-96.98077,2.4,3.7,311,985.52,0.1,89,0.97,0.0,1013.29,60.8
2019-11-20 01:40,50.6304433333333,-96.9807716666667,2.3,3.0,318,985.57,0.1,89,0.98,0.0,1013.35,60.8
2019-11-20 01:50,50.6304416666667,-96.98077,1.8,3.0,319,985.56,0.1,90,0.99,0.0,1013.34,60.8
2019-11-20 02:00,50.63044,-96.9807666666667,1.9,3.0,320,985.52,0.1,89,1.00,0.0,1013.30,43.0
2019-11-20 02:10,50.63044,-96.9807666666667,2.3,2.9,312,985.65,0.0,89,1.02,0.0,1013.43,43.0
2019-11-20 02:20,50.63044,-96.9807666666667,2.8,3.7,304,985.69,0.0,89,1.02,0.0,1013.48,43.0
2019-11-20 02:30,50.6304416666667,-96.9807683333333,2.5,4.1,300,985.83,-0.0,89,1.03,0.0,1013.62,43.0
2019-11-20 02:40,50.6304416666667,-96.98077,2.5,4.0,313,985.90,-0.0,89,1.03,0.0,1013.70,43.0
2019-11-20 02:50,50.6304383333333,-96.9807666666667,1.9,2.9,310,985.91,-0.1,90,1.03,0.0,1013.71,43.0
2019-11-20 03:00,50.6304433333333,-96.9807633333333,1.8,2.6,282,986.13,-0.1,90,1.04,0.0,1013.94,55.2
2019-11-20 03:10,50.6304433333333,-96.980765,2.2,3.0,281,986.30,-0.1,90,1.03,0.0,1014.11,55.2
2019-11-20 03:20,50.6304433333333,-96.9807666666667,2.0,3.2,289,986.36,-0.1,91,1.03,0.0,1014.18,55.2
2019-11-20 03:30,50.630445,-96.9807633333333,1.7,3.3,296,986.50,-0.1,91,1.03,0.0,1014.33,55.2
2019-11-20 03:40,50.630455,-96.9807616666667,2.4,3.4,306,986.57,-0.1,91,1.02,0.0,1014.40,55.2
2019-11-20 03:50,50.6304566666667,-96.98077,2.8,4.1,305,986.61,-0.1,92,1.02,0.0,1014.45,55.2
2019-11-20 04:00,50.630465,-96.98071,2.1,3.1,284,986.72,-0.2,92,1.02,0.0,1014.56,42.5
2019-11-20 04:10,50.630455,-96.98076,2.0,3.3,299,986.73,-0.2,93,1.02,0.0,1014.57,42.5
2019-11-20 04:20,50.6304516666667,-96.98076,2.7,3.5,317,986.76,-0.1,93,1.02,0.0,1014.60,42.5
2019-11-20 04:30,50.63045,-96.9807616666667,2.6,3.7,313,986.87,-0.2,93,1.01,0.0,1014.71,42.5
2019-11-20 04:40,50.63045,-96.9807633333333,2.7,3.5,318,986.85,-0.2,93,1.01,0.0,1014.70,42.5
2019-11-20 04:50,50.63045,-96.980765,3.2,4.6,327,986.89,-0.3,93,1.01,0.0,1014.74,42.5
2019-11-20 05:00,50.630445,-96.9807866666667,3.5,4.3,330,986.93,-0.2,92,1.02,0.0,1014.79,270.0
2019-11-20 05:10,50.6304466666667,-96.9807716666667,3.2,4.7,337,986.98,-0.3,93,1.03,0.0,1014.84,270.0
2019-11-20 05:20,50.6304283333333,-96.980755,2.6,3.9,335,987.08,-0.3,93,1.03,0.0,1014.94,270.0
2019-11-20 05:30,50.6304333333333,-96.9807583333333,2.5,3.5,308,987.24,-0.4,92,1.04,0.0,1015.11,270.0
2019-11-20 05:40,50.6304733333333,-96.9808016666667,2.6,3.8,309,987.37,-0.4,91,1.04,0.0,1015.24,270.0
2019-11-20 05:50,50.630435,-96.9807583333333,2.9,3.8,321,987.51,-0.4,90,1.05,0.0,1015.39,270.0
2019-11-20 06:00,50.630435,-96.9807566666667,2.9,4.0,319,987.60,-0.4,90,1.04,0.0,1015.49,131.7
2019-11-20 06:10,50.630435,-96.980755,2.6,4.1,330,987.62,-0.4,90,1.04,0.0,1015.50,131.7
2019-11-20 06:20,50.630435,-96.9807583333333,3.0,6.1,351,987.66,-0.4,92,1.03,0.0,1015.55,131.7
2019-11-20 06:30,50.6304433333333,-96.9807633333333,3.5,5.4,27,987.89,-0.3,94,1.03,0.0,1015.78,131.7
2019-11-20 06:40,50.6304416666667,-96.9807583333333,3.9,4.7,45,988.13,-0.3,93,1.02,0.0,1016.03,131.7
2019-11-20 06:50,50.63044,-96.9807583333333,3.3,4.0,42,988.31,-0.3,94,1.02,0.0,1016.21,131.7
2019-11-20 07:00,50.6304383333333,-96.98076,4.1,5.1,28,988.31,-0.3,93,1.01,0.0,1016.21,224.5
2019-11-20 07:10,50.6304383333333,-96.9807616666667,4.6,5.3,25,988.43,-0.4,92,1.00,0.0,1016.34,224.5
2019-11-20 07:20,50.63044,-96.9807616666667,5.1,5.9,26,988.55,-0.4,93,1.00,0.0,1016.47,224.5
2019-11-20 07:30,50.63044,-96.9807616666667,5.3,5.9,24,988.57,-0.4,94,0.98,0.0,1016.50,224.5
2019-11-20 07:40,50.63044,-96.9807633333333,5.2,5.8,31,988.59,-0.4,92,0.98,0.0,1016.52,224.5
2019-11-20 07:50,50.63044,-96.9807633333333,5.0,5.9,35,988.61,-0.4,91,0.98,0.0,1016.54,224.5
2019-11-20 08:00,50.63044,-96.980765,4.8,5.4,33,988.69,-0.4,92,0.99,0.0,1016.62,90.0
2019-11-20 08:10,50.6304366666667,-96.9807566666667,4.5,5.0,45,988.79,-0.5,92,1.00,0.0,1016.73,90.0
2019-11-20 08:20,50.6304383333333,-96.9808016666667,4.0,5.2,39,988.96,-0.5,93,0.99,0.0,1016.90,90.0
2019-11-20 08:30,50.6304466666667,-96.9807833333333,4.6,6.0,44,989.01,-0.5,94,0.99,0.0,1016.95,90.0
2019-11-20 08:40,50.6304433333333,-96.9807583333333,4.9,5.9,44,989.12,-0.5,93,0.99,0.0,1017.06,90.0
2019-11-20 08:50,50.6304416666667,-96.9807633333333,5.1,6.4,39,989.16,-0.6,93,0.98,0.0,1017.11,90.0
2019-11-20 09:00,50.6304416666667,-96.9807633333333,5.6,6.4,32,989.28,-0.6,93,0.95,0.0,1017.24,311.7
2019-11-20 09:10,50.6304433333333,-96.9807633333333,6.3,7.4,43,989.33,-0.7,94,0.93,0.0,1017.29,311.7
2019-11-20 09:20,50.6304433333333,-96.9807633333333,5.7,6.4,37,989.53,-0.8,92,0.94,0.0,1017.50,311.7
2019-11-20 09:30,50.6304433333333,-96.980765,6.2,7.0,38,989.51,-0.8,92,0.96,0.0,1017.48,311.7
2019-11-20 09:40,50.63045,-96.98075,6.6,7.2,40,989.52,-0.9,91,0.94,0.0,1017.50,311.7
2019-11-20 09:50,50.6304366666667,-96.980755,6.5,7.4,44,989.50,-0.9,90,0.94,0.0,1017.48,311.7
2019-11-20 10:00,50.6304383333333,-96.9807616666667,6.2,7.0,45,989.58,-1.0,90,0.94,0.0,1017.56,0.0
2019-11-20 10:10,50.6304383333333,-96.980765,6.1,7.3,44,989.57,-1.0,91,0.95,0.0,1017.55,0.0
2019-11-20 10:20,50.6304183333333,-96.9807383333333,6.8,7.5,49,989.61,-1.0,91,0.97,0.0,1017.60,0.0
2019-11-20 10:30,50.6304483333333,-96.9807683333333,7.0,8.2,44,989.58,-1.0,91,0.97,0.0,1017.57,0.0
2019-11-20 10:40,50.6304483333333,-96.980775,7.5,8.8,38,989.63,-1.1,91,0.97,0.0,1017.63,0.0
2019-11-20 10:50,50.6304483333333,-96.9807766666667,7.6,8.3,30,989.87,-1.1,92,0.97,0.0,1017.88,0.0
2019-11-20 11:00,50.6304466666667,-96.9807766666667,7.3,8.3,24,990.07,-1.1,93,0.99,0.0,1018.09,311.7
2019-11-20 11:10,50.6304466666667,-96.9807766666667,7.6,8.6,27,990.18,-1.1,92,1.00,0.0,1018.20,311.7
2019-11-20 11:20,50.6304483333333,-96.9807766666667,7.4,9.3,26,990.15,-1.1,94,0.99,0.0,1018.18,311.7
2019-11-20 11:30,50.6304316666667,-96.9807616666667,7.4,8.1,25,990.12,-1.1,93,1.00,0.0,1018.15,311.7
2019-11-20 11:40,50.63044,-96.980775,8.8,9.7,27,989.99,-1.2,93,1.01,0.0,1018.02,311.7
2019-11-20 11:50,50.6304733333333,-96.98081,8.6,9.9,16,990.05,-1.2,91,1.04,0.0,1018.09,311.7
2019-11-20 12:00,50.6304433333333,-96.98077,9.5,10.9,21,989.89,-1.3,91,1.05,0.0,1017.92,0.0
2019-11-20 12:10,50.6304416666667,-96.980775,9.8,11.2,13,989.98,-1.3,92,1.06,0.0,1018.02,0.0
2019-11-20 12:20,50.630445,-96.9807616666667,9.7,11.0,17,990.11,-1.4,92,1.05,0.0,1018.17,0.0
2019-11-20 12:30,50.63044,-96.9807766666667,11.1,12.6,16,990.03,-1.5,92,1.02,0.0,1018.09,0.0
2019-11-20 12:40,50.6304366666667,-96.98077,11.3,12.8,11,990.06,-1.6,95,1.02,0.0,1018.12,0.0
2019-11-20 12:50,50.630435,-96.98077,11.9,13.4,15,989.99,-1.6,94,1.04,0.0,1018.05,0.0
2019-11-20 13:00,50.6304383333333,-96.9807783333333,12.8,14.5,13,990.04,-1.7,91,1.03,0.0,1018.11,270.0
2019-11-20 13:10,50.6304366666667,-96.980785,12.8,14.5,12,990.11,-1.8,94,1.03,0.0,1018.19,270.0
2019-11-20 13:20,50.630445,-96.9807733333333,12.5,14.8,11,990.30,-2.0,94,1.04,0.0,1018.39,270.0
2019-11-20 13:30,50.6304483333333,-96.980765,12.3,14.2,9,990.60,-2.0,94,1.03,0.0,1018.71,270.0
2019-11-20 13:40,50.6304466666667,-96.9807666666667,13.0,14.7,8,990.59,-2.1,94,1.03,0.0,1018.70,270.0
2019-11-20 13:50,50.6304466666667,-96.980765,12.7,14.7,9,990.65,-2.3,97,1.03,0.0,1018.78,270.0
2019-11-20 14:00,50.6304483333333,-96.9807666666667,14.0,17.6,8,990.80,-2.5,99,1.03,0.0,1018.94,90.0
2019-11-20 14:10,50.6304483333333,-96.9807683333333,14.4,16.5,4,990.91,-2.8,99,1.03,0.0,1019.08,90.0
2019-11-20 14:20,50.6304483333333,-96.98077,13.1,16.3,2,991.16,-3.0,99,1.02,0.0,1019.35,90.0
2019-11-20 14:30,50.63042,-96.98077,11.4,14.2,357,991.34,-3.2,99,1.03,0.0,1019.55,90.0
2019-11-20 14:40,50.6304433333333,-96.98077,11.1,14.1,358,991.39,-3.3,99,1.05,0.0,1019.61,90.0
2019-11-20 14:50,50.6304416666667,-96.9807716666667,11.9,15.5,5,991.44,-3.3,99,1.04,0.0,1019.67,90.0
2019-11-20 15:00,50.6304433333333,-96.9807733333333,12.9,16.7,4,991.47,-3.4,99,1.06,0.0,1019.71,270.0
2019-11-20 15:10,50.630445,-96.98077,15.6,17.7,12,991.44,-3.5,99,1.08,0.0,1019.70,270.0
2019-11-20 15:20,50.630445,-96.9807683333333,14.9,17.3,9,991.58,-3.8,99,1.09,0.0,1019.85,270.0
2019-11-20 15:30,50.630445,-96.9807666666667,14.3,17.4,6,991.60,-4.0,99,1.09,0.0,1019.89,270.0
2019-11-20 15:40,50.630445,-96.9807683333333,13.0,16.2,1,991.75,-4.1,98,1.09,0.0,1020.06,270.0
2019-11-20 15:50,50.6304433333333,-96.9807683333333,12.5,14.9,1,991.78,-4.2,93,1.11,0.0,1020.10,270.0
2019-11-20 16:00,50.6304433333333,-96.9807683333333,11.3,13.5,358,992.02,-4.2,88,1.10,0.0,1020.37,90.0
2019-11-20 16:10,50.6304466666667,-96.9807833333333,10.5,13.3,359,992.14,-4.2,86,1.09,0.0,1020.50,90.0
2019-11-20 16:20,50.6304566666667,-96.9807733333333,10.6,13.1,353,992.19,-4.1,86,1.09,0.0,1020.56,90.0
2019-11-20 16:30,50.63044,-96.9807683333333,11.5,13.6,8,992.20,-4.1,84,1.09,0.0,1020.58,90.0
2019-11-20 16:40,50.6304416666667,-96.9807766666667,10.3,14.5,5,992.30,-4.2,83,1.11,0.0,1020.69,90.0
2019-11-20 16:50,50.6304416666667,-96.9807716666667,11.6,14.6,9,992.38,-4.2,81,1.12,0.0,1020.77,90.0
2019-11-20 17:00,50.6304433333333,-96.9807716666667,11.4,13.3,2,992.30,-4.3,80,1.13,0.0,1020.70,192.6
2019-11-20 17:10,50.630445,-96.9807716666667,11.4,13.2,4,992.24,-4.2,81,1.13,0.0,1020.65,192.6
2019-11-20 17:20,50.630445,-96.98077,10.8,13.1,1,992.20,-4.3,82,1.14,0.0,1020.62,192.6
2019-11-20 17:30,50.630445,-96.9807683333333,9.7,12.3,355,992.09,-4.4,85,1.15,0.0,1020.53,192.6
2019-11-20 17:40,50.630445,-96.9807683333333,8.6,11.5,1,992.20,-4.6,92,1.16,0.0,1020.65,192.6
2019-11-20 17:50,50.630445,-96.9807666666667,11.1,13.2,7,992.09,-4.8,94,1.16,0.0,1020.55,192.6
2019-11-20 18:00,50.630445,-96.9807666666667,10.6,12.9,6,992.16,-4.8,95,1.16,0.0,1020.62,90.0
2019-11-20 18:10,50.6304633333333,-96.980785,9.7,11.6,358,992.20,-4.8,95,1.16,0.0,1020.65,90.0
2019-11-20 18:20,50.6304533333333,-96.9807766666667,9.2,11.5,0,992.35,-4.8,93,1.15,0.0,1020.80,90.0
2019-11-20 18:30,50.6304566666667,-96.9808,7.5,9.7,1,992.31,-4.7,90,1.15,0.0,1020.77,90.0
2019-11-20 18:40,50.630455,-96.98076,6.7,8.6,13,992.25,-4.6,92,1.15,0.0,1020.70,90.0
2019-11-20 18:50,50.6304533333333,-96.9807566666667,6.3,7.6,13,992.22,-4.6,92,1.15,0.0,1020.67,90.0
2019-11-20 19:00,50.6304516666667,-96.9807533333333,6.5,8.5,11,992.22,-4.5,88,1.14,0.0,1020.67,12.6
2019-11-20 19:10,50.6304516666667,-96.980755,6.1,9.5,13,992.14,-4.3,86,1.14,0.0,1020.57,12.6
2019-11-20 19:20,50.6304533333333,-96.9807583333333,8.3,10.9,14,991.91,-4.1,82,1.14,0.0,1020.34,12.6
2019-11-20 19:30,50.6304516666667,-96.9807616666667,8.5,11.0,2,992.16,-4.0,80,1.14,0.0,1020.61,12.6
2019-11-20 19:40,50.6304516666667,-96.9807616666667,7.4,9.7,1,992.24,-4.0,78,1.14,0.0,1020.69,12.6
2019-11-20 19:50,50.630425,-96.98077,8.9,10.7,5,992.12,-4.0,76,1.15,0.0,1020.57,12.6
2019-11-20 20:00,50.6304533333333,-96.980765,8.7,10.6,360,992.05,-3.9,75,1.16,0.0,1020.49,14.5
2019-11-20 20:10,50.6304466666667,-96.9807716666667,8.8,11.1,358,992.13,-3.9,75,1.17,0.0,1020.57,14.5
2019-11-20 20:20,50.6304283333333,-96.9807566666667,9.0,12.6,1,992.06,-3.9,76,1.17,0.0,1020.50,14.5
2019-11-20 20:30,50.6304416666667,-96.9807633333333,9.1,11.8,358,992.12,-4.0,75,1.17,0.0,1020.55,14.5
2019-11-20 20:40,50.630445,-96.9807616666667,9.8,12.9,356,992.15,-3.9,76,1.17,0.0,1020.58,14.5
2019-11-20 20:50,50.6304466666667,-96.9807633333333,8.0,11.3,348,992.11,-4.0,76,1.17,0.0,1020.54,14.5
2019-11-20 21:00,50.6304466666667,-96.980765,7.4,10.5,350,992.24,-4.0,79,1.17,0.0,1020.67,360.0
2019-11-20 21:10,50.6304483333333,-96.9807666666667,7.2,11.0,332,992.32,-4.2,80,1.17,0.0,1020.75,360.0
2019-11-20 21:20,50.63045,-96.9807666666667,8.0,10.5,349,992.27,-4.5,86,1.16,0.0,1020.71,360.0
2019-11-20 21:30,50.63045,-96.9807666666667,8.4,10.6,356,992.24,-4.6,90,1.16,0.0,1020.69,360.0
2019-11-20 21:40,50.63045,-96.980765,7.2,9.5,348,992.25,-4.8,93,1.16,0.0,1020.70,360.0
2019-11-20 21:50,50.6304533333333,-96.9807633333333,6.0,7.7,348,992.28,-4.9,95,1.16,0.0,1020.73,360.0
2019-11-20 22:00,50.630455,-96.9807766666667,6.8,9.9,348,992.41,-4.9,94,1.15,0.0,1020.86,270.0
2019-11-20 22:10,50.6304466666667,-96.980735,6.7,9.6,348,992.40,-4.9,92,1.15,0.0,1020.86,270.0
2019-11-20 22:20,50.6304483333333,-96.9807583333333,8.2,12.0,355,992.31,-5.0,89,1.15,0.0,1020.77,270.0
2019-11-20 22:30,50.63045,-96.980765,8.6,12.0,350,992.27,-5.1,87,1.15,0.0,1020.74,270.0
2019-11-20 22:40,50.6304516666667,-96.98077,8.8,11.0,349,992.45,-5.3,85,1.15,0.0,1020.94,270.0
2019-11-20 22:50,50.6304516666667,-96.98077,8.5,11.0,345,992.52,-5.5,81,1.16,0.0,1021.01,270.0
2019-11-20 23:00,50.6304516666667,-96.9807716666667,7.1,9.7,335,992.62,-5.7,77,1.16,0.0,1021.14,270.0
2019-11-20 23:10,50.6304516666667,-96.9807716666667,6.0,8.7,326,992.58,-5.9,76,1.16,0.0,1021.13,270.0
2019-11-20 23:20,50.6304516666667,-96.9807716666667,5.7,8.0,328,992.56,-6.1,75,1.16,0.0,1021.13,270.0
2019-11-20 23:30,50.6304516666667,-96.9807716666667,6.2,8.7,329,992.54,-6.3,76,1.17,0.0,1021.13,270.0
